User: anonymous   Login
Location: Bun Machan
(52.1403°N, 7.3744°W)
Time: 22:35:28
(UTC+00:00)
Language:

IRAS Rocket - Orbit

View from above orbital plane
View from above orbital plane
View from above satellite
View from above satellite

Ground track
Ground track

The orbit data is extracted from the following two-line orbital elements,

1 13778U 83004B   20270.13423098 -.00000110  00000-0 -32331-4 0  9992
2 13778 100.0621  46.5087 0021111 180.4567 179.6583 14.09029478935588
Epoch (UTC): 26 September 2020 03:13:17
Eccentricity: 0.0021111
inclination: 100.0621°
perigee height: 847 km
apogee height: 878 km
right ascension of ascending node: 46.5087°
argument of perigee: 180.4567°
revolutions per day: 14.09029478
mean anomaly at epoch: 179.6583°
orbit number at epoch: 93558

The dashed part of the orbit path shows where the satellite is in the earth's shadow,  

DLR